Location: East Horndon
(51.5667°N, 0.3500°E)
Time: 03:12:31
(UTC+00:00)

NOSS 2-1 (C) - Pass Details

Date: 08 November 2025
Orbit: 375 x 1687 km, 63.3° (Epoch: 15 December)

Event Time Altitude Azimuth Distance (km) Brightness Sun altitude
Exits shadow 06:02:48 13° 262° (W) 1,351 4.7 -9.9°
Maximum altitude 06:05:17 31° 324° (NW) 715 3.5 -9.5°
Drops below altitude 10° 06:08:00 10° 30° (NNE) 1,397 5.6 -9.1°
Sets 06:10:06 0° 42° (NE) 2,261 6.8 -8.8°
